GW2061 Weather Reports


Display with metric or nautical units.
time (UTC)temp
F
wind
direction
speed
MPH
gust
MPH
rain 1hr
in
rain 24hr
in
rain mn
in
humidity
%
barometer
mb
20260906031919 74 182 1.0 1.0 0.00 0.00 0.00 53 1010.6
20260906031414 74 173 1.0 1.0 0.00 0.00 0.00 53 1010.5
20260906030909 74 189 0.0 1.0 0.00 0.00 0.00 53 1010.4
20260906030404 74 185 1.0 1.0 0.00 0.00 0.00 53 1010.4
20260906025858 74 13 0.0 1.0 0.00 0.00 0.00 53 1010.3
20260906025353 75 183 0.0 1.0 0.00 0.00 0.00 52 1010.4
20260906024851 75 201 0.0 1.0 0.00 0.00 0.00 52 1010.3
20260906024351 74 190 0.0 0.0 0.00 0.00 0.00 53 1010.2
20260906023846 74 345 0.0 1.0 0.00 0.00 0.00 54 1010.2
20260906023342 74 302 1.0 1.0 0.00 0.00 0.00 54 1010.2
20260906022837 74 254 1.0 1.0 0.00 0.00 0.00 55 1010.2
20260906022338 74 175 0.0 2.0 0.00 0.00 0.00 55 1010.1
20260906021833 74 186 0.0 0.0 0.00 0.00 0.00 54 1010.1
20260906021332 74 171 0.0 1.0 0.00 0.00 0.00 54 1010.2
20260906020828 74 50 1.0 1.0 0.00 0.00 0.00 54 1010.3
20260906020327 74 49 3.0 3.0 0.00 0.00 0.00 55 1010.1
20260906015822 74 164 2.0 2.0 0.00 0.00 0.00 55 1010.1
20260906015321 74 264 2.0 5.0 0.00 0.00 0.00 56 1010.1
20260906014820 74 249 1.0 2.0 0.00 0.00 0.00 56 1010.1
20260906014316 74 114 1.0 1.0 0.00 0.00 0.00 56 1010.1
20260906013812 75 248 0.0 0.0 0.00 0.00 0.00 55 1010.1
20260906013307 75 168 0.0 0.0 0.00 0.00 0.00 55 1009.7
20260906012802 75 130 0.0 1.0 0.00 0.00 0.00 55 1009.8
20260906012257 74 196 0.0 1.0 0.00 0.00 0.00 54 1009.9
20260906011752 74 252 0.0 1.0 0.00 0.00 0.00 55 1010.0
20260906011252 74 177 0.0 0.0 0.00 0.00 0.00 54 1009.9
20260906010748 74 158 1.0 1.0 0.00 0.00 0.00 54 1009.8
20260906010244 74 177 0.0 0.0 0.00 0.00 0.00 55 1010.0
20260906005739 74 186 0.0 0.0 0.00 0.00 0.00 54 1009.6
20260906005238 74 186 0.0 0.0 0.00 0.00 0.00 54 1009.9
20260906004737 74 186 0.0 0.0 0.00 0.00 0.00 54 1010.0
20260906004232 75 186 0.0 0.0 0.00 0.00 0.00 54 1009.8
20260906003727 75 186 0.0 0.0 0.00 0.00 0.00 53 1009.9
20260906003223 75 187 0.0 0.0 0.00 0.00 0.00 53 1009.8
20260906002723 75 183 0.0 0.0 0.00 0.00 0.00 52 1009.6
20260906002218 75 187 0.0 0.0 0.00 0.00 0.00 53 1009.9
20260906001713 75 182 0.0 0.0 0.00 0.00 0.00 54 1009.8
20260906001213 75 207 0.0 0.0 0.00 0.00 0.00 55 1009.8
20260906000709 75 174 0.0 1.0 0.00 0.00 0.00 57 1009.8
20260906000204 75 168 0.0 0.0 0.00 0.00 0.00 60 1009.7
20260905235703 75 177 0.0 0.0 0.00 0.00 0.00 63 1010.0
20260905235157 74 234 1.0 1.0 0.00 0.00 0.00 68 1009.7
20260905234653 74 154 0.0 0.0 0.00 0.00 0.00 72 1009.7
20260905234148 75 153 0.0 1.0 0.00 0.00 0.00 72 1009.4
20260905233644 75 171 0.0 0.0 0.00 0.00 0.00 73 1009.7
20260905233143 75 121 1.0 2.0 0.00 0.00 0.00 72 1009.8
20260905232638 75 169 0.0 0.0 0.00 0.00 0.00 69 1009.8
20260905232134 75 106 0.0 0.0 0.00 0.00 0.00 66 1009.8
20260905231629 75 190 0.0 1.0 0.00 0.00 0.00 64 1009.7
20260905231125 76 176 0.0 0.0 0.00 0.00 0.00 64 1009.8
20260905230620 76 178 0.0 0.0 0.00 0.00 0.00 63 1009.5
20260905230119 76 163 0.0 1.0 0.00 0.00 0.00 60 1009.6
20260905225618 76 176 0.0 1.0 0.00 0.00 0.00 60 1009.6
20260905225113 76 160 0.0 1.0 0.00 0.00 0.00 60 1009.8
20260905224614 76 134 1.0 1.0 0.00 0.00 0.00 59 1009.6
20260905224113 76 156 0.0 1.0 0.00 0.00 0.00 60 1009.8
20260905223610 76 308 1.0 1.0 0.00 0.00 0.00 61 1009.4
20260905223107 76 324 1.0 1.0 0.00 0.00 0.00 61 1009.3
20260905222606 76 294 1.0 1.0 0.00 0.00 0.00 62 1009.5
20260905222102 76 166 1.0 1.0 0.00 0.00 0.00 62 1009.4
20260905221558 76 169 0.0 0.0 0.00 0.00 0.00 63 1009.4
20260905221054 76 182 0.0 1.0 0.00 0.00 0.00 64 1009.4
20260905220549 76 349 1.0 1.0 0.00 0.00 0.00 64 1009.4
20260905220045 76 151 0.0 1.0 0.00 0.00 0.00 64 1009.2
20260905215544 76 172 0.0 0.0 0.00 0.00 0.00 64 1009.4
20260905215040 77 171 0.0 0.0 0.00 0.00 0.00 63 1009.5
20260905214536 77 164 0.0 0.0 0.00 0.00 0.00 61 1009.0
20260905214031 77 159 0.0 1.0 0.00 0.00 0.00 59 1009.1
20260905213526 77 154 1.0 1.0 0.00 0.00 0.00 57 1009.0
20260905213022 77 205 0.0 1.0 0.00 0.00 0.00 56 1009.2
20260905212516 77 15 1.0 2.0 0.00 0.00 0.00 55 1009.1
20260905212017 78 259 2.0 2.0 0.00 0.00 0.00 54 1008.9
20260905211511 78 156 1.0 1.0 0.00 0.00 0.00 52 1009.0
20260905211007 78 239 1.0 1.0 0.00 0.00 0.00 51 1008.9
20260905210502 78 120 1.0 2.0 0.00 0.00 0.00 50 1009.1
20260905210002 78 342 1.0 2.0 0.00 0.00 0.00 49 1008.8
20260905205456 78 179 0.0 0.0 0.00 0.00 0.00 49 1008.7
20260905204955 78 163 0.0 0.0 0.00 0.00 0.00 49 1008.8
20260905204451 78 179 0.0 1.0 0.00 0.00 0.00 49 1008.8
20260905203950 78 155 0.0 1.0 0.00 0.00 0.00 49 1008.6
20260905203446 78 154 0.0 0.0 0.00 0.00 0.00 49 1008.8
20260905202941 78 171 1.0 2.0 0.00 0.00 0.00 50 1008.8
20260905202436 78 187 0.0 0.0 0.00 0.00 0.00 50 1008.7
20260905201932 79 202 1.0 1.0 0.00 0.00 0.00 50 1008.5
20260905201427 79 178 0.0 0.0 0.00 0.00 0.00 50 1008.5
20260905200926 78 200 0.0 0.0 0.00 0.00 0.00 51 1008.5
20260905200423 78 185 0.0 0.0 0.00 0.00 0.00 52 1008.4
20260905195921 78 188 0.0 1.0 0.00 0.00 0.00 53 1008.4
20260905195416 78 189 0.0 0.0 0.00 0.00 0.00 54 1008.4
20260905194912 78 202 0.0 1.0 0.00 0.00 0.00 56 1008.5
20260905194412 78 164 0.0 0.0 0.00 0.00 0.00 58 1008.3
20260905193911 78 194 0.0 0.0 0.00 0.00 0.00 62 1008.4
20260905193406 78 181 0.0 0.0 0.00 0.00 0.00 64 1008.4
20260905192901 79 181 0.0 0.0 0.00 0.00 0.00 64 1008.6
20260905192357 79 181 0.0 0.0 0.00 0.00 0.00 64 1008.5
20260905191856 79 172 0.0 0.0 0.00 0.00 0.00 64 1008.2
20260905191356 78 192 0.0 0.0 0.00 0.00 0.00 65 1008.0
20260905190856 78 192 0.0 0.0 0.00 0.00 0.00 66 1008.3
20260905190354 78 188 0.0 0.0 0.00 0.00 0.00 67 1008.1
20260905185853 78 197 0.0 0.0 0.00 0.00 0.00 68 1008.2
20260905185349 78 167 0.0 0.0 0.00 0.00 0.00 68 1008.1
20260905184847 78 184 0.0 1.0 0.00 0.00 0.00 69 1007.9
20260905184347 78 193 0.0 0.0 0.00 0.00 0.00 70 1007.9
20260905183845 78 186 0.0 1.0 0.00 0.00 0.00 70 1007.7
20260905183341 78 168 0.0 1.0 0.00 0.00 0.00 71 1007.8
20260905182842 78 169 0.0 0.0 0.00 0.00 0.00 71 1007.8
20260905182341 78 192 0.0 0.0 0.00 0.00 0.00 72 1007.7
20260905181837 79 192 0.0 1.0 0.00 0.00 0.00 73 1007.8
20260905181336 79 178 0.0 1.0 0.00 0.00 0.00 74 1007.8
20260905180835 79 128 1.0 1.0 0.00 0.00 0.00 75 1007.8
20260905180331 79 100 2.0 2.0 0.00 0.00 0.00 75 1007.9
20260905175826 79 309 1.0 2.0 0.00 0.00 0.00 75 1007.6
20260905175325 80 136 1.0 2.0 0.00 0.00 0.00 73 1007.5
20260905174821 80 242 1.0 1.0 0.00 0.00 0.00 72 1007.5
20260905174317 81 182 0.0 0.0 0.00 0.00 0.00 70 1007.5
20260905173812 82 189 1.0 1.0 0.00 0.00 0.00 67 1007.3
20260905173308 82 160 1.0 1.0 0.00 0.00 0.00 61 1007.2
20260905172808 83 189 1.0 1.0 0.00 0.00 0.00 59 1007.2
20260905172306 84 186 0.0 0.0 0.00 0.00 0.00 50 1007.2
20260905171803 84 186 0.0 0.0 0.00 0.00 0.00 50 1006.9
20260905171259 84 194 0.0 0.0 0.00 0.00 0.00 49 1007.0
20260905170755 85 186 0.0 0.0 0.00 0.00 0.00 49 1006.8
20260905170251 85 174 0.0 0.0 0.00 0.00 0.00 49 1007.0
20260905165749 85 183 0.0 0.0 0.00 0.00 0.00 48 1007.0
20260905165246 85 183 0.0 0.0 0.00 0.00 0.00 48 1006.8
20260905164745 86 176 0.0 0.0 0.00 0.00 0.00 47 1006.8
20260905164240 86 182 0.0 1.0 0.00 0.00 0.00 47 1006.9
20260905163736 86 174 0.0 1.0 0.00 0.00 0.00 46 1006.6
20260905163232 86 179 0.0 0.0 0.00 0.00 0.00 46 1006.7
20260905162728 86 185 0.0 1.0 0.00 0.00 0.00 46 1006.6
20260905162227 86 181 0.0 1.0 0.00 0.00 0.00 47 1006.6
20260905161722 86 196 0.0 1.0 0.00 0.00 0.00 48 1006.5
20260905161221 87 162 1.0 2.0 0.00 0.00 0.00 48 1006.5
20260905160719 87 172 0.0 1.0 0.00 0.00 0.00 48 1006.6
20260905160220 87 174 1.0 1.0 0.00 0.00 0.00 48 1006.5
20260905155714 87 196 2.0 2.0 0.00 0.00 0.00 47 1006.5
20260905155213 88 169 1.0 2.0 0.00 0.00 0.00 48 1006.5
20260905154707 88 177 2.0 2.0 0.00 0.00 0.00 47 1006.5
20260905154203 88 155 1.0 2.0 0.00 0.00 0.00 48 1006.7
20260905153659 89 167 2.0 2.0 0.00 0.00 0.00 46 1006.6
20260905153154 90 194 0.0 1.0 0.00 0.00 0.00 46 1006.6
20260905152649 90 187 0.0 0.0 0.00 0.00 0.00 45 1006.3
20260905152143 90 179 1.0 2.0 0.00 0.00 0.00 44 1006.3
20260905151638 90 194 1.0 1.0 0.00 0.00 0.00 45 1006.4
20260905151134 90 204 0.0 1.0 0.00 0.00 0.00 45 1006.6
20260905150629 90 180 0.0 1.0 0.00 0.00 0.00 45 1006.6
20260905150127 91 117 2.0 2.0 0.00 0.00 0.00 44 1007.0
20260905145626 91 202 0.0 0.0 0.00 0.00 0.00 44 1006.9
20260905145125 91 186 2.0 2.0 0.00 0.00 0.00 44 1006.8
20260905144620 91 184 1.0 2.0 0.00 0.00 0.00 45 1006.7
20260905144119 92 195 1.0 2.0 0.00 0.00 0.00 44 1006.6
20260905143614 92 194 2.0 2.0 0.00 0.00 0.00 43 1006.7
20260905143108 93 189 1.0 1.0 0.00 0.00 0.00 43 1006.7
20260905142608 93 185 0.0 1.0 0.00 0.00 0.00 44 1006.7
20260905142108 93 198 0.0 1.0 0.00 0.00 0.00 44 1007.0
20260905141607 92 183 2.0 3.0 0.00 0.00 0.00 43 1006.5
20260905141104 92 146 2.0 3.0 0.00 0.00 0.00 45 1006.8
20260905140559 91 160 1.0 1.0 0.00 0.00 0.00 45 1006.8
20260905140058 93 184 2.0 2.0 0.00 0.00 0.00 43 1006.8
20260905135553 91 187 1.0 2.0 0.00 0.00 0.00 45 1006.7
20260905135053 91 203 1.0 1.0 0.00 0.00 0.00 46 1006.8
20260905134548 91 183 2.0 2.0 0.00 0.00 0.00 45 1006.9
20260905134047 91 149 2.0 3.0 0.00 0.00 0.00 46 1007.0
20260905133543 90 178 1.0 2.0 0.00 0.00 0.00 47 1006.8
20260905133042 90 172 1.0 2.0 0.00 0.00 0.00 48 1006.9
20260905132542 91 132 2.0 3.0 0.00 0.00 0.00 47 1006.8
20260905132037 91 181 2.0 3.0 0.00 0.00 0.00 49 1006.8
20260905131533 92 177 0.0 1.0 0.00 0.00 0.00 46 1007.0
20260905131028 93 201 3.0 3.0 0.00 0.00 0.00 46 1006.8
20260905130527 92 188 1.0 2.0 0.00 0.00 0.00 47 1006.9
20260905130022 92 122 3.0 5.0 0.00 0.00 0.00 47 1006.9
20260905125521 91 184 1.0 2.0 0.00 0.00 0.00 47 1006.8
20260905125017 91 187 2.0 2.0 0.00 0.00 0.00 47 1006.9
20260905124514 91 174 1.0 1.0 0.00 0.00 0.00 47 1006.8
20260905124009 91 190 0.0 0.0 0.00 0.00 0.00 48 1007.0
20260905123505 90 155 2.0 2.0 0.00 0.00 0.00 49 1007.0
20260905123000 91 215 3.0 6.0 0.00 0.00 0.00 47 1007.0
20260905122455 91 151 2.0 2.0 0.00 0.00 0.00 48 1007.2
20260905121950 92 188 2.0 3.0 0.00 0.00 0.00 47 1007.4
20260905121445 92 198 2.0 3.0 0.00 0.00 0.00 46 1007.6
20260905120944 91 184 1.0 1.0 0.00 0.00 0.00 48 1007.2
20260905120439 91 160 3.0 3.0 0.00 0.00 0.00 47 1007.5
20260905115934 91 193 1.0 2.0 0.00 0.00 0.00 47 1007.2
20260905115433 91 112 1.0 2.0 0.00 0.00 0.00 46 1007.5
20260905114929 91 198 0.0 1.0 0.00 0.00 0.00 47 1007.3
20260905114428 91 198 0.0 0.0 0.00 0.00 0.00 48 1007.6
20260905113927 91 197 0.0 0.0 0.00 0.00 0.00 48 1007.6
20260905113423 91 161 2.0 2.0 0.00 0.00 0.00 46 1007.6
20260905112918 90 179 1.0 2.0 0.00 0.00 0.00 48 1007.3
20260905112413 89 156 1.0 2.0 0.00 0.00 0.00 50 1007.4
20260905111908 89 109 2.0 2.0 0.00 0.00 0.00 51 1007.6
20260905111408 90 214 4.0 5.0 0.00 0.00 0.00 48 1007.6
20260905110902 89 188 1.0 1.0 0.00 0.00 0.00 51 1007.6
20260905110402 89 147 3.0 3.0 0.00 0.00 0.00 52 1007.5
20260905105857 89 172 4.0 6.0 0.00 0.00 0.00 51 1007.6
20260905105357 89 192 1.0 1.0 0.00 0.00 0.00 52 1007.8
20260905104856 88 131 1.0 3.0 0.00 0.00 0.00 54 1007.8
20260905104353 88 179 2.0 2.0 0.00 0.00 0.00 54 1007.7
20260905103852 88 194 1.0 2.0 0.00 0.00 0.00 54 1007.8
20260905103348 89 160 2.0 2.0 0.00 0.00 0.00 53 1007.7
20260905102844 88 213 4.0 6.0 0.00 0.00 0.00 55 1007.6
20260905102341 87 164 1.0 2.0 0.00 0.00 0.00 57 1007.7
20260905101840 86 179 1.0 1.0 0.00 0.00 0.00 59 1007.7
20260905101339 86 186 2.0 3.0 0.00 0.00 0.00 60 1007.6
20260905100833 86 230 3.0 5.0 0.00 0.00 0.00 59 1007.7
20260905100330 86 181 2.0 2.0 0.00 0.00 0.00 60 1007.7
20260905095829 86 129 2.0 3.0 0.00 0.00 0.00 61 1007.4
20260905095329 86 144 2.0 2.0 0.00 0.00 0.00 61 1007.8
20260905094823 86 155 3.0 3.0 0.00 0.00 0.00 60 1007.9
20260905094319 86 171 1.0 2.0 0.00 0.00 0.00 60 1007.9
20260905093818 85 136 1.0 2.0 0.00 0.00 0.00 60 1007.8
20260905093314 85 181 1.0 1.0 0.00 0.00 0.00 59 1007.7
20260905092810 86 170 4.0 5.0 0.00 0.00 0.00 59 1007.7
20260905092309 86 150 2.0 5.0 0.00 0.00 0.00 57 1007.6
20260905091804 85 164 3.0 3.0 0.00 0.00 0.00 56 1007.6
20260905091304 85 191 1.0 2.0 0.00 0.00 0.00 57 1007.3
20260905090803 86 205 2.0 2.0 0.00 0.00 0.00 55 1007.4
20260905090259 86 180 1.0 1.0 0.00 0.00 0.00 54 1007.4
20260905085759 85 168 2.0 3.0 0.00 0.00 0.00 54 1007.5
20260905085258 85 175 1.0 2.0 0.00 0.00 0.00 54 1007.5
20260905084754 85 132 3.0 3.0 0.00 0.00 0.00 53 1007.4
20260905084253 85 165 1.0 1.0 0.00 0.00 0.00 51 1007.3
20260905083748 85 170 1.0 2.0 0.00 0.00 0.00 51 1007.4
20260905083244 86 150 2.0 3.0 0.00 0.00 0.00 53 1007.5
20260905082739 85 172 0.0 0.0 0.00 0.00 0.00 52 1007.4
20260905082236 85 177 0.0 1.0 0.00 0.00 0.00 53 1007.4
20260905081736 84 163 1.0 2.0 0.00 0.00 0.00 58 1007.2
20260905081231 83 194 0.0 1.0 0.00 0.00 0.00 57 1007.0
20260905080730 82 175 0.0 1.0 0.00 0.00 0.00 59 1007.1
20260905080230 81 126 2.0 3.0 0.00 0.00 0.00 61 1007.2
20260905075729 80 177 1.0 2.0 0.00 0.00 0.00 63 1007.2
20260905075229 80 175 2.0 2.0 0.00 0.00 0.00 64 1007.1
20260905074728 80 178 0.0 1.0 0.00 0.00 0.00 67 1006.8
20260905074224 79 190 0.0 0.0 0.00 0.00 0.00 68 1007.0
20260905073719 79 170 0.0 0.0 0.00 0.00 0.00 68 1006.8
20260905073215 78 198 1.0 2.0 0.00 0.00 0.00 68 1006.6
20260905072714 78 173 0.0 0.0 0.00 0.00 0.00 68 1006.7
20260905072209 78 188 2.0 2.0 0.00 0.00 0.00 68 1006.7
20260905071706 78 173 0.0 1.0 0.00 0.00 0.00 69 1006.5
20260905071202 78 167 0.0 0.0 0.00 0.00 0.00 69 1006.4
20260905070656 78 167 0.0 0.0 0.00 0.00 0.00 69 1006.8
20260905070152 78 148 1.0 2.0 0.00 0.00 0.00 68 1006.8
20260905065650 77 170 0.0 0.0 0.00 0.00 0.00 69 1006.6
20260905065145 77 181 0.0 0.0 0.00 0.00 0.00 69 1006.8
20260905064641 77 190 0.0 0.0 0.00 0.00 0.00 68 1006.8
20260905064136 77 166 1.0 1.0 0.00 0.00 0.00 66 1006.8
20260905063634 77 173 1.0 1.0 0.00 0.00 0.00 66 1006.8
20260905063131 76 160 0.0 0.0 0.00 0.00 0.00 68 1006.6
20260905062627 75 176 0.0 0.0 0.00 0.00 0.00 70 1006.6
20260905062126 74 152 1.0 1.0 0.00 0.00 0.00 73 1006.7
20260905061621 73 186 0.0 0.0 0.00 0.00 0.00 78 1006.6
20260905061120 73 185 0.0 0.0 0.00 0.00 0.00 81 1006.6
20260905060616 73 185 0.0 0.0 0.00 0.00 0.00 83 1006.6
20260905060112 73 213 0.0 1.0 0.00 0.00 0.00 83 1006.8
20260905055610 73 177 0.0 0.0 0.00 0.00 0.00 84 1006.8
20260905055106 72 192 0.0 0.0 0.00 0.00 0.00 84 1007.0
20260905054602 72 190 0.0 0.0 0.00 0.00 0.00 84 1006.8
20260905054057 72 182 0.0 0.0 0.00 0.00 0.00 84 1006.5
20260905053556 72 182 0.0 0.0 0.00 0.00 0.00 84 1006.5
20260905053052 72 183 0.0 0.0 0.00 0.00 0.00 84 1006.4
20260905052551 72 162 0.0 1.0 0.00 0.00 0.00 83 1006.6
20260905052046 72 153 0.0 0.0 0.00 0.00 0.00 84 1006.7
20260905051541 71 166 0.0 0.0 0.00 0.00 0.00 83 1006.3
20260905051038 71 175 0.0 0.0 0.00 0.00 0.00 82 1006.7
20260905050534 70 168 0.0 0.0 0.00 0.00 0.00 80 1006.6
20260905050031 70 185 0.0 0.0 0.00 0.00 0.00 80 1006.2
20260905045525 70 169 0.0 0.0 0.00 0.00 0.00 81 1006.2
20260905045020 70 169 0.0 0.0 0.00 0.00 0.00 83 1006.4
20260905044520 70 169 0.0 0.0 0.00 0.00 0.00 83 1006.2
20260905044015 71 169 0.0 0.0 0.00 0.00 0.00 83 1006.2
20260905043514 71 164 0.0 0.0 0.00 0.00 0.00 83 1006.3
20260905043009 71 162 0.0 0.0 0.00 0.00 0.00 82 1006.1
20260905042508 71 163 0.0 0.0 0.00 0.00 0.00 82 1006.3
20260905042004 72 161 0.0 0.0 0.00 0.00 0.00 82 1006.2
20260905041459 72 165 0.0 0.0 0.00 0.00 0.00 82 1006.1
20260905040954 72 141 1.0 1.0 0.00 0.00 0.00 82 1006.1
20260905040453 71 168 1.0 1.0 0.00 0.00 0.00 82 1006.1
20260905035952 71 155 0.0 0.0 0.00 0.00 0.00 83 1006.0
20260905035448 71 168 0.0 0.0 0.00 0.00 0.00 85 1006.0
20260905034946 71 167 0.0 0.0 0.00 0.00 0.00 86 1005.8
20260905034441 71 168 0.0 0.0 0.00 0.00 0.00 86 1005.8
20260905033939 71 165 0.0 0.0 0.00 0.00 0.00 86 1005.9
20260905033439 71 154 0.0 0.0 0.00 0.00 0.00 87 1005.6
20260905032934 71 9 0.0 0.0 0.00 0.00 0.00 87 1005.8
20260905032430 71 165 0.0 0.0 0.00 0.00 0.00 87 1006.0